Time,TemperatureF,DewpointF,PressureIn,WindDirection,WindDirectionDegrees,WindSpeedMPH,WindSpeedGustMPH,Humidity,HourlyPrecipIn,Conditions,Clouds,dailyrainin,SoftwareType,DateUTC
2013-10-16 00:02:00,54.3,52.0,30.13,ESE,114,0.0,0.0,93,0.00,,,0.00,weatherlink.com 1.10,2013-10-16 04:02:00,
2013-10-16 00:17:00,53.6,52.0,30.13,ESE,115,0.0,0.0,93,0.00,,,0.00,weatherlink.com 1.10,2013-10-16 04:17:00,
2013-10-16 00:32:00,53.4,52.0,30.13,ESE,114,0.0,1.0,94,0.00,,,0.00,weatherlink.com 1.10,2013-10-16 04:32:00,
2013-10-16 00:47:00,53.0,51.0,30.12,ESE,114,0.0,0.0,94,0.00,,,0.00,weatherlink.com 1.10,2013-10-16 04:47:00,
2013-10-16 01:02:00,53.7,52.0,30.11,SE,124,0.0,1.0,95,0.00,,,0.00,weatherlink.com 1.10,2013-10-16 05:02:00,
2013-10-16 01:17:00,54.5,53.0,30.10,ESE,117,0.0,1.0,95,0.00,,,0.00,weatherlink.com 1.10,2013-10-16 05:17:00,
2013-10-16 01:32:00,54.9,53.0,30.10,SE,134,0.0,1.0,94,0.00,,,0.00,weatherlink.com 1.10,2013-10-16 05:32:00,
2013-10-16 01:47:00,52.9,51.0,30.11,SE,134,0.0,0.0,92,0.00,,,0.00,weatherlink.com 1.10,2013-10-16 05:47:00,
2013-10-16 02:02:00,52.6,51.0,30.11,SE,134,0.0,0.0,93,0.00,,,0.00,weatherlink.com 1.10,2013-10-16 06:02:00,
2013-10-16 02:17:00,53.2,52.0,30.11,SE,134,0.0,0.0,94,0.00,,,0.00,weatherlink.com 1.10,2013-10-16 06:17:00,
2013-10-16 02:32:00,53.7,52.0,30.11,SE,134,0.0,1.0,93,0.00,,,0.00,weatherlink.com 1.10,2013-10-16 06:32:00,
2013-10-16 02:47:00,53.9,52.0,30.11,SE,134,0.0,1.0,93,0.00,,,0.00,weatherlink.com 1.10,2013-10-16 06:47:00,
2013-10-16 03:02:00,54.0,52.0,30.10,SE,134,0.0,1.0,92,0.00,,,0.00,weatherlink.com 1.10,2013-10-16 07:02:00,
2013-10-16 03:17:00,53.2,51.0,30.10,SE,134,0.0,0.0,92,0.00,,,0.00,weatherlink.com 1.10,2013-10-16 07:17:00,
2013-10-16 03:32:00,52.4,50.0,30.09,SE,134,0.0,0.0,92,0.00,,,0.00,weatherlink.com 1.10,2013-10-16 07:32:00,
2013-10-16 03:47:00,52.2,50.0,30.09,SE,134,0.0,0.0,93,0.00,,,0.00,weatherlink.com 1.10,2013-10-16 07:47:00,
2013-10-16 04:02:00,51.9,50.0,30.10,SE,134,0.0,0.0,92,0.00,,,0.00,weatherlink.com 1.10,2013-10-16 08:02:00,
2013-10-16 04:17:00,51.9,49.0,30.10,SE,134,0.0,0.0,91,0.00,,,0.00,weatherlink.com 1.10,2013-10-16 08:17:00,
2013-10-16 04:32:00,52.0,49.0,30.10,SE,134,0.0,0.0,90,0.00,,,0.00,weatherlink.com 1.10,2013-10-16 08:32:00,
2013-10-16 04:47:00,52.2,49.0,30.11,SE,134,0.0,0.0,90,0.00,,,0.00,weatherlink.com 1.10,2013-10-16 08:47:00,
2013-10-16 05:03:00,52.2,49.0,30.11,SE,134,0.0,0.0,90,0.00,,,0.00,weatherlink.com 1.10,2013-10-16 09:03:00,
2013-10-16 05:18:00,52.4,50.0,30.11,SE,134,0.0,0.0,90,0.00,,,0.00,weatherlink.com 1.10,2013-10-16 09:18:00,
2013-10-16 05:33:00,52.5,49.0,30.10,SE,134,0.0,0.0,89,0.00,,,0.00,weatherlink.com 1.10,2013-10-16 09:33:00,
2013-10-16 05:48:00,52.5,49.0,30.10,SE,134,0.0,1.0,89,0.00,,,0.00,weatherlink.com 1.10,2013-10-16 09:48:00,
2013-10-16 06:03:00,52.6,50.0,30.09,SE,134,0.0,0.0,89,0.00,,,0.00,weatherlink.com 1.10,2013-10-16 10:03:00,
2013-10-16 06:18:00,52.6,50.0,30.10,SE,134,0.0,0.0,89,0.00,,,0.00,weatherlink.com 1.10,2013-10-16 10:18:00,
2013-10-16 06:33:00,52.7,50.0,30.10,SE,134,0.0,0.0,89,0.00,,,0.00,weatherlink.com 1.10,2013-10-16 10:33:00,
2013-10-16 06:48:00,52.8,50.0,30.09,SE,134,0.0,0.0,90,0.00,,,0.00,weatherlink.com 1.10,2013-10-16 10:48:00,
2013-10-16 07:03:00,52.8,50.0,30.09,SE,134,0.0,1.0,89,0.00,,,0.00,weatherlink.com 1.10,2013-10-16 11:03:00,
2013-10-16 07:18:00,52.7,50.0,30.09,SE,134,0.0,0.0,89,0.00,,,0.00,weatherlink.com 1.10,2013-10-16 11:18:00,
2013-10-16 07:33:00,52.6,50.0,30.08,SE,134,0.0,1.0,89,0.00,,,0.00,weatherlink.com 1.10,2013-10-16 11:33:00,
2013-10-16 07:48:00,53.0,50.0,30.08,SE,134,0.0,0.0,90,0.00,,,0.00,weatherlink.com 1.10,2013-10-16 11:48:00,
2013-10-16 08:03:00,53.6,51.0,30.08,SE,134,0.0,0.0,90,0.00,,,0.00,weatherlink.com 1.10,2013-10-16 12:03:00,
2013-10-16 08:18:00,53.8,50.0,30.08,SE,134,0.0,0.0,88,0.00,,,0.00,weatherlink.com 1.10,2013-10-16 12:18:00,
2013-10-16 08:33:00,54.4,51.0,30.08,SE,134,0.0,0.0,89,0.00,,,0.00,weatherlink.com 1.10,2013-10-16 12:33:00,
2013-10-16 08:48:00,55.1,52.0,30.08,SE,131,0.0,0.0,89,0.00,,,0.00,weatherlink.com 1.10,2013-10-16 12:48:00,
2013-10-16 09:03:00,55.7,52.0,30.09,SE,131,0.0,0.0,87,0.00,,,0.00,weatherlink.com 1.10,2013-10-16 13:03:00,
2013-10-16 09:18:00,56.0,52.0,30.10,SE,129,0.0,0.0,86,0.00,,,0.00,weatherlink.com 1.10,2013-10-16 13:18:00,
2013-10-16 09:33:00,56.5,53.0,30.08,SE,131,0.0,0.0,88,0.00,,,0.00,weatherlink.com 1.10,2013-10-16 13:33:00,
2013-10-16 09:48:00,57.3,54.0,30.08,SE,130,0.0,0.0,87,0.00,,,0.00,weatherlink.com 1.10,2013-10-16 13:48:00,
2013-10-16 10:03:00,57.6,54.0,30.07,SE,131,0.0,0.0,86,0.00,,,0.00,weatherlink.com 1.10,2013-10-16 14:03:00,
2013-10-16 10:18:00,57.9,54.0,30.08,SE,129,0.0,0.0,86,0.00,,,0.00,weatherlink.com 1.10,2013-10-16 14:18:00,
2013-10-16 10:33:00,57.8,54.0,30.07,SE,131,0.0,0.0,87,0.00,,,0.00,weatherlink.com 1.10,2013-10-16 14:33:00,
2013-10-16 10:48:00,58.5,55.0,30.07,SE,130,0.0,0.0,87,0.00,,,0.00,weatherlink.com 1.10,2013-10-16 14:48:00,
2013-10-16 11:03:00,58.8,55.0,30.07,SE,142,0.0,2.0,86,0.00,,,0.00,weatherlink.com 1.10,2013-10-16 15:03:00,
2013-10-16 11:18:00,59.0,54.0,30.06,SE,142,0.0,1.0,84,0.00,,,0.00,weatherlink.com 1.10,2013-10-16 15:18:00,
2013-10-16 11:33:00,60.1,55.0,30.06,SE,142,0.0,1.0,83,0.00,,,0.00,weatherlink.com 1.10,2013-10-16 15:33:00,
2013-10-16 11:48:00,61.3,57.0,30.05,ESE,107,0.0,1.0,85,0.00,,,0.00,weatherlink.com 1.10,2013-10-16 15:48:00,
2013-10-16 12:03:00,62.7,58.0,30.05,East,98,0.0,1.0,83,0.00,,,0.00,weatherlink.com 1.10,2013-10-16 16:03:00,
2013-10-16 12:18:00,63.3,57.0,30.04,SE,124,0.0,1.0,80,0.00,,,0.00,weatherlink.com 1.10,2013-10-16 16:18:00,
2013-10-16 12:33:00,63.3,57.0,30.03,ESE,122,0.0,2.0,80,0.00,,,0.00,weatherlink.com 1.10,2013-10-16 16:33:00,
2013-10-16 12:48:00,64.4,57.0,30.03,East,98,0.0,2.0,77,0.00,,,0.00,weatherlink.com 1.10,2013-10-16 16:48:00,
2013-10-16 13:03:00,64.9,57.0,30.01,East,98,0.0,1.0,76,0.00,,,0.00,weatherlink.com 1.10,2013-10-16 17:03:00,
2013-10-16 13:18:00,65.5,58.0,30.00,NE,56,0.0,0.0,77,0.00,,,0.00,weatherlink.com 1.10,2013-10-16 17:18:00,
2013-10-16 13:34:00,65.5,57.0,30.00,East,87,1.0,1.0,75,0.00,,,0.00,weatherlink.com 1.10,2013-10-16 17:34:00,
2013-10-16 13:49:00,65.4,57.0,30.00,East,89,0.0,1.0,75,0.00,,,0.00,weatherlink.com 1.10,2013-10-16 17:49:00,
2013-10-16 14:04:00,64.8,57.0,30.00,East,90,0.0,1.0,77,0.00,,,0.00,weatherlink.com 1.10,2013-10-16 18:04:00,
2013-10-16 14:19:00,65.0,57.0,29.99,East,91,0.0,0.0,75,0.00,,,0.00,weatherlink.com 1.10,2013-10-16 18:19:00,
2013-10-16 14:34:00,64.9,57.0,29.99,East,91,0.0,0.0,76,0.00,,,0.00,weatherlink.com 1.10,2013-10-16 18:34:00,
2013-10-16 14:49:00,64.9,58.0,29.99,East,91,0.0,0.0,78,0.00,,,0.00,weatherlink.com 1.10,2013-10-16 18:49:00,
2013-10-16 15:04:00,64.8,58.0,29.99,East,90,0.0,0.0,79,0.00,,,0.00,weatherlink.com 1.10,2013-10-16 19:04:00,
2013-10-16 15:19:00,65.2,59.0,29.99,East,91,0.0,0.0,79,0.00,,,0.00,weatherlink.com 1.10,2013-10-16 19:19:00,
2013-10-16 15:34:00,65.4,58.0,29.99,East,90,0.0,0.0,78,0.00,,,0.00,weatherlink.com 1.10,2013-10-16 19:34:00,
2013-10-16 15:49:00,65.2,59.0,29.98,East,91,0.0,1.0,79,0.00,,,0.00,weatherlink.com 1.10,2013-10-16 19:49:00,
2013-10-16 16:04:00,65.0,58.0,29.98,East,91,0.0,0.0,79,0.00,,,0.00,weatherlink.com 1.10,2013-10-16 20:04:00,
2013-10-16 16:19:00,64.7,58.0,29.99,East,91,0.0,0.0,79,0.00,,,0.00,weatherlink.com 1.10,2013-10-16 20:19:00,
2013-10-16 16:34:00,64.7,58.0,29.98,East,91,0.0,0.0,79,0.00,,,0.00,weatherlink.com 1.10,2013-10-16 20:34:00,
2013-10-16 16:49:00,64.9,58.0,29.98,East,90,0.0,1.0,78,0.00,,,0.00,weatherlink.com 1.10,2013-10-16 20:49:00,
2013-10-16 17:04:00,64.6,58.0,29.97,ESE,106,0.0,0.0,80,0.00,,,0.00,weatherlink.com 1.10,2013-10-16 21:04:00,
2013-10-16 17:19:00,64.2,58.0,29.97,ESE,106,0.0,0.0,81,0.00,,,0.00,weatherlink.com 1.10,2013-10-16 21:19:00,
2013-10-16 17:34:00,63.5,58.0,29.97,ESE,106,0.0,0.0,82,0.00,,,0.00,weatherlink.com 1.10,2013-10-16 21:34:00,
2013-10-16 17:49:00,62.6,58.0,29.97,ESE,105,0.0,0.0,84,0.00,,,0.00,weatherlink.com 1.10,2013-10-16 21:49:00,
2013-10-16 18:04:00,62.2,58.0,29.97,ESE,105,0.0,0.0,85,0.00,,,0.00,weatherlink.com 1.10,2013-10-16 22:04:00,
2013-10-16 18:19:00,61.5,58.0,29.96,ESE,105,0.0,0.0,87,0.00,,,0.00,weatherlink.com 1.10,2013-10-16 22:19:00,
2013-10-16 18:34:00,61.0,58.0,29.96,ESE,106,0.0,0.0,88,0.00,,,0.00,weatherlink.com 1.10,2013-10-16 22:34:00,
2013-10-16 18:49:00,60.5,57.0,29.96,ESE,106,0.0,0.0,89,0.00,,,0.00,weatherlink.com 1.10,2013-10-16 22:49:00,
2013-10-16 19:04:00,60.3,57.0,29.96,ESE,105,0.0,0.0,90,0.00,,,0.00,weatherlink.com 1.10,2013-10-16 23:04:00,
2013-10-16 19:19:00,60.0,57.0,29.96,ESE,105,0.0,0.0,91,0.00,,,0.00,weatherlink.com 1.10,2013-10-16 23:19:00,
2013-10-16 19:34:00,59.8,57.0,29.96,ESE,106,0.0,0.0,91,0.00,,,0.00,weatherlink.com 1.10,2013-10-16 23:34:00,
2013-10-16 19:49:00,59.4,57.0,29.96,ESE,105,0.0,0.0,92,0.00,,,0.00,weatherlink.com 1.10,2013-10-16 23:49:00,
2013-10-16 20:04:00,59.1,57.0,29.96,ESE,105,0.0,0.0,92,0.00,,,0.00,weatherlink.com 1.10,2013-10-17 00:04:00,
2013-10-16 20:19:00,59.0,57.0,29.96,ESE,106,0.0,0.0,93,0.00,,,0.00,weatherlink.com 1.10,2013-10-17 00:19:00,
2013-10-16 20:34:00,58.8,57.0,29.96,ESE,105,0.0,0.0,93,0.00,,,0.00,weatherlink.com 1.10,2013-10-17 00:34:00,
2013-10-16 20:49:00,58.6,57.0,29.96,ESE,106,0.0,0.0,94,0.00,,,0.00,weatherlink.com 1.10,2013-10-17 00:49:00,
2013-10-16 21:04:00,58.5,57.0,29.96,ESE,106,0.0,0.0,94,0.00,,,0.00,weatherlink.com 1.10,2013-10-17 01:04:00,
2013-10-16 21:19:00,58.4,57.0,29.96,ESE,105,0.0,0.0,95,0.00,,,0.00,weatherlink.com 1.10,2013-10-17 01:19:00,
2013-10-16 21:34:00,58.4,57.0,29.97,ESE,105,0.0,0.0,95,0.00,,,0.00,weatherlink.com 1.10,2013-10-17 01:34:00,
2013-10-16 21:49:00,58.6,57.0,29.97,ESE,106,0.0,0.0,95,0.00,,,0.00,weatherlink.com 1.10,2013-10-17 01:49:00,
2013-10-16 22:04:00,58.7,57.0,29.96,ESE,106,0.0,0.0,95,0.00,,,0.00,weatherlink.com 1.10,2013-10-17 02:04:00,
2013-10-16 22:19:00,58.8,57.0,29.96,ESE,105,0.0,0.0,95,0.00,,,0.00,weatherlink.com 1.10,2013-10-17 02:19:00,
2013-10-16 22:34:00,58.9,58.0,29.96,ESE,106,0.0,0.0,95,0.00,,,0.00,weatherlink.com 1.10,2013-10-17 02:34:00,
2013-10-16 22:49:00,58.9,58.0,29.96,ESE,106,0.0,0.0,95,0.00,,,0.00,weatherlink.com 1.10,2013-10-17 02:49:00,
2013-10-16 23:04:00,58.9,58.0,29.95,ESE,106,0.0,0.0,95,0.00,,,0.00,weatherlink.com 1.10,2013-10-17 03:04:00,
2013-10-16 23:19:00,58.9,58.0,29.95,ESE,106,0.0,0.0,95,0.00,,,0.00,weatherlink.com 1.10,2013-10-17 03:19:00,
2013-10-16 23:34:00,58.8,57.0,29.94,ESE,106,0.0,0.0,95,0.00,,,0.00,weatherlink.com 1.10,2013-10-17 03:34:00,
2013-10-16 23:49:00,58.8,57.0,29.93,ESE,106,0.0,0.0,95,0.00,,,0.00,weatherlink.com 1.10,2013-10-17 03:49:00,